Location: Oak Glen
(34.0495°N, 116.9470°E)
Time: 16:52:08
(UTC-08:00)

Envisat - Pass Details

Date: 11 October 2017
Orbit: 764 x 766 km, 98.2° (Epoch: 14 December)

Event Time Altitude Azimuth Distance (km) Brightness Sun altitude
Exits shadow 05:49:19 19° 317° (NW) 1,753 5.3 -38.8°
Drops below altitude 10° 05:50:57 10° 329° (NNW) 2,305 5.9 -39.1°
Sets 05:53:27 0° 338° (NNW) 3,235 6.7 -39.6°
